MAX VALIER SAT (42778 NORAD) Tracking and Keplerian Element Data

This shows tracking and keplerian element data for the satellite.

Feedback or suggestion? Click here.




ElementValue
Catalog42778
NameMAX VALIER SAT
Epoch Orbit8143
Epoch Day345.29255663
Epoch Year2018
RAAN41.8762
Inclination97.3819
Eccentricity0.0013101
Argument of Perigee162.3843
Mean Anonmoly197.785
Mean Motion15.2165777
Decay Rate9.61E-06
L11 42778U 17036P 18345.29255663 .00000961 00000-0 45498-4 0 9994
L22 42778 97.3819 41.8762 0013101 162.3843 197.7850 15.21657770 81432

Live tracking and technical data element details for MAX VALIER SAT (NORAD 42778). MAX VALIER SAT can be tracked NOW for your location showing map with azimuth and elevation plus other details from your city location.

Track the satellite on the map from your city or location and see movement details for azimuth, elevation, latitude, longitude, range, height, and movement on the map or in text.







IsCatalogInMostPopularTable: catalog: 42778, numindb: 130
Update: records affected: 1



GetName: 42778 MAX VALIER SAT

Hit Count: updated at: Thu, 13 Dec 2018 05:10:19 GMT